Satellite: ASTRA 1B
Catalog number: 21139
Epoch time:      103064.00000000
Element set:     163 
Inclination:        0.0122 deg
RA of node:       319.8851 deg
Eccentricity:    0.0002995
Arg of perigee:    65.1991 deg
Mean anomaly:     156.4174 deg
Mean motion:    1.00273184 rev/day
Decay rate:    1.1099E-006 rev/day^2
Epoch rev:            3233
Checksum:              236

Satellite: METEOSAT 5 (MO
Catalog number: 21140
Epoch time:      103060.09077436
Element set:     741 
Inclination:        5.6529 deg
RA of node:        69.8729 deg
Eccentricity:    0.0000430
Arg of perigee:   309.0749 deg
Mean anomaly:     235.1341 deg
Mean motion:    1.00276557 rev/day
Decay rate:    1.9999E-008 rev/day^2
Epoch rev:            4615
Checksum:              302

Satellite: NOAA 12
Catalog number: 21263
Epoch time:      103066.54491909
Element set:     994 
Inclination:       98.6280 deg
RA of node:        55.8881 deg
Eccentricity:    0.0012802
Arg of perigee:   337.0717 deg
Mean anomaly:      22.9889 deg
Mean motion:   14.25092286 rev/day
Decay rate:    3.4499E-006 rev/day^2
Epoch rev:           61363
Checksum:              343

Satellite: OSCAR 22 (UoSA
Catalog number: 21575
Epoch time:      103066.19393404
Element set:     742 
Inclination:       98.1425 deg
RA of node:        57.4789 deg
Eccentricity:    0.0008590
Arg of perigee:    82.6830 deg
Mean anomaly:     277.5338 deg
Mean motion:   14.39165251 rev/day
Decay rate:    3.1100E-006 rev/day^2
Epoch rev:           61067
Checksum:              321

Satellite: METEOR 3-5
Catalog number: 21655
Epoch time:      103065.40028186
Element set:     504 
Inclination:       82.5548 deg
RA of node:        27.6729 deg
Eccentricity:    0.0013417
Arg of perigee:   153.9027 deg
Mean anomaly:     206.2775 deg
Mean motion:   13.16980686 rev/day
Decay rate:    5.1000E-007 rev/day^2
Epoch rev:           55556
Checksum:              312

Satellite: UARS
Catalog number: 21701
Epoch time:      103065.65996109
Element set:     840 
Inclination:       56.9829 deg
RA of node:       326.9217 deg
Eccentricity:    0.0004017
Arg of perigee:   107.5627 deg
Mean anomaly:     252.5884 deg
Mean motion:   15.02893119 rev/day
Decay rate:    1.1570E-005 rev/day^2
Epoch rev:           62813
Checksum:              313

Satellite: EUTELSAT 2-F3
Catalog number: 21803
Epoch time:      103061.89438075
Element set:     526 
Inclination:        2.6299 deg
RA of node:        89.0023 deg
Eccentricity:    0.0003956
Arg of perigee:   276.0556 deg
Mean anomaly:     138.8041 deg
Mean motion:    1.00272234 rev/day
Decay rate:    1.1399E-006 rev/day^2
Epoch rev:            3712
Checksum:              288

Satellite: INMARSAT 2-F3
Catalog number: 21814
Epoch time:      103065.36080883
Element set:     627 
Inclination:        1.7763 deg
RA of node:        58.5400 deg
Eccentricity:    0.0002618
Arg of perigee:   289.2871 deg
Mean anomaly:     163.7711 deg
Mean motion:    1.00276265 rev/day
Decay rate:    1.0799E-006 rev/day^2
Epoch rev:            4105
Checksum:              293

Satellite: INMARSAT 2-F4
Catalog number: 21940
Epoch time:      103062.44518345
Element set:     576 
Inclination:        2.3916 deg
RA of node:        20.0078 deg
Eccentricity:    0.0002025
Arg of perigee:   329.0460 deg
Mean anomaly:      81.0054 deg
Mean motion:    1.00267465 rev/day
Decay rate:   -3.6500E-006 rev/day^2
Epoch rev:            3981
Checksum:              257

Satellite: EUTELSAT 2-F4
Catalog number: 22028
Epoch time:      103066.20834492
Element set:     335 
Inclination:        1.7575 deg
RA of node:        92.2150 deg
Eccentricity:    0.0006263
Arg of perigee:   238.7759 deg
Mean anomaly:     256.2027 deg
Mean motion:    1.00271528 rev/day
Decay rate:   -1.0100E-006 rev/day^2
Epoch rev:            3194
Checksum:              266

Satellite: OSCAR 23 (KITS
Catalog number: 22077
Epoch time:      103065.42732833
Element set:     159 
Inclination:       66.0861 deg
RA of node:        92.5178 deg
Eccentricity:    0.0015762
Arg of perigee:   270.1881 deg
Mean anomaly:      89.7331 deg
Mean motion:   12.86408987 rev/day
Decay rate:   -3.7000E-007 rev/day^2
Epoch rev:           49634
Checksum:              328

Satellite: ASTRA 1C
Catalog number: 22653
Epoch time:      103064.00000000
Element set:     790 
Inclination:        0.0122 deg
RA of node:       319.8851 deg
Eccentricity:    0.0002995
Arg of perigee:    65.1991 deg
Mean anomaly:     156.4044 deg
Mean motion:    1.00273184 rev/day
Decay rate:    1.1099E-006 rev/day^2
Epoch rev:            3103
Checksum:              236

Satellite: METEOR 2-21
Catalog number: 22782
Epoch time:      103066.24034561
Element set:     535 
Inclination:       82.5501 deg
RA of node:       201.6730 deg
Eccentricity:    0.0021087
Arg of perigee:   300.5098 deg
Mean anomaly:      59.3984 deg
Mean motion:   13.83532816 rev/day
Decay rate:    2.2999E-007 rev/day^2
Epoch rev:           48039
Checksum:              311

Satellite: KITSAT B
Catalog number: 22825
Epoch time:      103066.20770285
Element set:     502 
Inclination:       98.2725 deg
RA of node:        95.0560 deg
Eccentricity:    0.0007977
Arg of perigee:   204.2401 deg
Mean anomaly:     155.8408 deg
Mean motion:   14.28948617 rev/day
Decay rate:    1.4299E-006 rev/day^2
Epoch rev:           49225
Checksum:              317

Satellite: POSAT 1
Catalog number: 22826
Epoch time:      103064.62513204
Element set:     336 
Inclination:       98.2710 deg
RA of node:        94.6739 deg
Eccentricity:    0.0008061
Arg of perigee:   212.3256 deg
Mean anomaly:     147.7435 deg
Mean motion:   14.29171369 rev/day
Decay rate:    1.4400E-006 rev/day^2
Epoch rev:           49207
Checksum:              290

Satellite: ITAMSAT
Catalog number: 22828
Epoch time:      103065.65178026
Element set:     441 
Inclination:       98.2706 deg
RA of node:        95.9156 deg
Eccentricity:    0.0009424
Arg of perigee:   185.3560 deg
Mean anomaly:     174.7523 deg
Mean motion:   14.29512808 rev/day
Decay rate:    1.1800E-006 rev/day^2
Epoch rev:           46042
Checksum:              410

Satellite: EYESAT A
Catalog number: 22829
Epoch time:      103066.14790087
Element set:     467 
Inclination:       98.2715 deg
RA of node:        97.0003 deg
Eccentricity:    0.0009276
Arg of perigee:   184.5265 deg
Mean anomaly:     175.5835 deg
Mean motion:   14.29776099 rev/day
Decay rate:    2.1599E-006 rev/day^2
Epoch rev:           49242
Checksum:              347

Satellite: METEOSAT 6
Catalog number: 22912
Epoch time:      103065.87888311
Element set:     711 
Inclination:        2.7181 deg
RA of node:        82.4708 deg
Eccentricity:    0.0001214
Arg of perigee:   191.8439 deg
Mean anomaly:     215.5196 deg
Mean motion:    1.00270329 rev/day
Decay rate:    6.0999E-007 rev/day^2
Epoch rev:            3246
Checksum:              297

Satellite: GOES 8
Catalog number: 23051
Epoch time:      103065.39439721
Element set:     635 
Inclination:        0.3360 deg
RA of node:       102.2864 deg
Eccentricity:    0.0001413
Arg of perigee:   300.0690 deg
Mean anomaly:     188.7256 deg
Mean motion:    1.00272205 rev/day
Decay rate:   -2.5399E-006 rev/day^2
Epoch rev:            3996
Checksum:              274

Satellite: ASTRA 1D
Catalog number: 23331
Epoch time:      103061.83053825
Element set:     822 
Inclination:        0.0965 deg
RA of node:       256.2527 deg
Eccentricity:    0.0003630
Arg of perigee:    97.0702 deg
Mean anomaly:     129.9835 deg
Mean motion:    1.00273165 rev/day
Decay rate:    1.2299E-006 rev/day^2
Epoch rev:            3099
Checksum:              276

Satellite: RADIO ROSTO
Catalog number: 23439
Epoch time:      103064.90340278
Element set:     694 
Inclination:       64.8179 deg
RA of node:        16.6824 deg
Eccentricity:    0.0146589
Arg of perigee:   112.1421 deg
Mean anomaly:     249.5130 deg
Mean motion:   11.27547766 rev/day
Decay rate:   -3.7999E-007 rev/day^2
Epoch rev:           33732
Checksum:              333

Satellite: NOAA 14
Catalog number: 23455
Epoch time:      103066.60667076
Element set:     547 
Inclination:       99.1865 deg
RA of node:        85.6223 deg
Eccentricity:    0.0009321
Arg of perigee:   177.2927 deg
Mean anomaly:     182.8297 deg
Mean motion:   14.13302970 rev/day
Decay rate:    1.3500E-006 rev/day^2
Epoch rev:           42188
Checksum:              323

Satellite: HIMAWARI 5 (GM
Catalog number: 23522
Epoch time:      103064.59071799
Element set:     131 
Inclination:        1.8050 deg
RA of node:        83.4137 deg
Eccentricity:    0.0000325
Arg of perigee:   141.6416 deg
Mean anomaly:     290.7911 deg
Mean motion:    1.00272074 rev/day
Decay rate:   -2.8500E-006 rev/day^2
Epoch rev:            2904
Checksum:              261

Satellite: HOT BIRD 1
Catalog number: 23537
Epoch time:      103055.93642088
Element set:     538 
Inclination:        0.0930 deg
RA of node:       158.4148 deg
Eccentricity:    0.0007489
Arg of perigee:   128.2319 deg
Mean anomaly:     217.9136 deg
Mean motion:    1.00274434 rev/day
Decay rate:    7.4000E-007 rev/day^2
Epoch rev:            2903
Checksum:              282

Satellite: GOES 9
Catalog number: 23581
Epoch time:      103064.52737593
Element set:     545 
Inclination:        0.2246 deg
RA of node:       276.4940 deg
Eccentricity:    0.0012019
Arg of perigee:   247.2507 deg
Mean anomaly:      20.9406 deg
Mean motion:    1.00064256 rev/day
Decay rate:    8.2999E-007 rev/day^2
Epoch rev:            2851
Checksum:              295

